GW1330 Weather Reports


time (UTC)temp
C
wind
direction
speed
KPH
gust
KPH
rain 1hr
cm
rain 24hr
cm
rain mn
cm
humidity
%
barometer
mb
20260507071821 11 55 0.0 0.0 0.00 0.00 0.00 63 1011.4
20260507071318 11 55 0.0 3.2 0.00 0.00 0.00 63 1011.5
20260507070814 11 56 0.0 3.2 0.00 0.00 0.00 62 1011.6
20260507070312 11 54 0.0 8.0 0.00 0.00 0.00 61 1011.4
20260507065808 11 52 1.6 3.2 0.00 0.00 0.00 64 1011.5
20260507065306 11 56 1.6 3.2 0.00 0.00 0.00 66 1011.6
20260507064802 11 56 0.0 1.6 0.00 0.00 0.00 68 1011.6
20260507064301 11 55 1.6 1.6 0.00 0.00 0.00 72 1011.6
20260507063758 11 55 0.0 3.2 0.00 0.00 0.00 73 1011.4
20260507063255 11 56 0.0 1.6 0.00 0.00 0.00 76 1011.4
20260507062752 11 56 1.6 1.6 0.00 0.00 0.00 76 1011.4
20260507062249 12 56 0.0 1.6 0.00 0.00 0.00 74 1011.4
20260507061747 12 57 0.0 3.2 0.00 0.00 0.00 72 1011.4
20260507061244 12 54 1.6 3.2 0.00 0.00 0.00 74 1011.5
20260507060743 12 57 1.6 9.7 0.00 0.00 0.00 74 1011.4
20260507060239 12 9 6.4 8.0 0.00 0.00 0.00 76 1011.6
20260507055735 12 57 0.0 3.2 0.00 0.00 0.00 76 1011.5
20260507055230 12 56 1.6 8.0 0.00 0.00 0.00 76 1011.3
20260507054727 12 31 4.8 12.9 0.00 0.00 0.00 76 1011.2
20260507054224 12 54 1.6 3.2 0.00 0.00 0.00 78 1011.3
20260507053721 12 45 3.2 11.3 0.00 0.00 0.00 79 1011.3
20260507053219 12 54 4.8 4.8 0.00 0.00 0.00 81 1011.3
20260507052718 12 47 1.6 4.8 0.00 0.00 0.00 79 1011.2
20260507052213 12 58 0.0 4.8 0.00 0.00 0.00 78 1011.3
20260507051712 12 59 1.6 3.2 0.00 0.00 0.00 79 1011.4
20260507051208 12 54 0.0 1.6 0.00 0.00 0.00 78 1011.3
20260507050705 12 46 3.2 4.8 0.00 0.00 0.00 79 1011.5
20260507050202 12 59 0.0 4.8 0.00 0.00 0.00 78 1011.5
20260507045659 12 56 1.6 3.2 0.00 0.00 0.00 77 1011.1
20260507045156 12 48 3.2 4.8 0.00 0.00 0.00 77 1011.3
20260507044652 12 58 0.0 1.6 0.00 0.00 0.00 78 1011.3
20260507044149 12 53 3.2 4.8 0.00 0.00 0.00 77 1011.2
20260507043645 12 44 3.2 8.0 0.00 0.00 0.00 79 1011.7
20260507043142 12 55 1.6 3.2 0.00 0.00 0.00 80 1011.6
20260507042638 12 59 1.6 3.2 0.00 0.00 0.00 76 1011.5
20260507042134 12 54 3.2 11.3 0.00 0.00 0.00 76 1011.3
20260507041631 12 46 4.8 9.7 0.00 0.00 0.00 75 1011.2
20260507041127 13 58 1.6 9.7 0.00 0.00 0.00 76 1011.3
20260507040624 13 356 6.4 9.7 0.00 0.00 0.00 74 1011.4
20260507040121 13 29 3.2 9.7 0.00 0.41 0.41 74 1011.4
20260507035616 13 57 1.6 3.2 0.00 0.41 0.41 76 1011.4
20260507035113 13 56 1.6 4.8 0.00 0.41 0.41 75 1011.2
20260507034610 13 56 1.6 12.9 0.00 0.41 0.41 74 1011.4
20260507034107 13 37 1.6 4.8 0.00 0.41 0.41 78 1011.0
20260507033606 13 45 3.2 4.8 0.00 0.41 0.41 79 1011.5
20260507033102 13 22 3.2 4.8 0.00 0.41 0.41 79 1010.9
20260507032600 13 55 3.2 4.8 0.00 0.41 0.41 80 1011.2
20260507032056 13 36 1.6 4.8 0.00 0.41 0.41 80 1010.9
20260507031552 13 50 1.6 9.7 0.00 0.41 0.41 79 1010.6
20260507031049 13 56 1.6 8.0 0.00 0.41 0.41 78 1010.6
20260507030545 13 59 0.0 11.3 0.00 0.41 0.41 78 1010.7
20260507030044 13 50 3.2 3.2 0.00 0.41 0.41 79 1011.0
20260507025540 13 33 4.8 4.8 0.00 0.41 0.41 80 1010.8
20260507025038 13 61 4.8 11.3 0.00 0.41 0.41 79 1010.9
20260507024536 13 43 1.6 8.0 0.00 0.41 0.41 78 1010.7
20260507024032 13 49 4.8 4.8 0.00 0.41 0.41 78 1010.9
20260507023528 13 356 6.4 14.5 0.00 0.41 0.41 79 1010.9
20260507023026 13 50 1.6 11.3 0.00 0.41 0.41 79 1011.0
20260507022522 13 56 0.0 3.2 0.00 0.41 0.41 80 1010.7
20260507022018 13 59 3.2 4.8 0.00 0.41 0.41 82 1010.8
20260507021514 13 60 0.0 0.0 0.00 0.41 0.41 82 1010.6
20260507021011 13 47 1.6 3.2 0.00 0.41 0.41 82 1010.6
20260507020508 14 57 0.0 3.2 0.00 0.41 0.41 82 1010.6
20260507020005 14 57 0.0 3.2 0.00 0.41 0.41 81 1010.7
20260507015503 14 56 1.6 3.2 0.00 0.41 0.41 81 1010.7
20260507015000 14 58 1.6 4.8 0.00 0.41 0.41 81 1010.8
20260507014456 14 50 1.6 4.8 0.00 0.41 0.41 81 1010.8
20260507013952 15 57 3.2 4.8 0.00 0.41 0.41 80 1010.8
20260507013449 15 60 1.6 1.6 0.00 0.41 0.41 80 1010.8
20260507012947 15 7 4.8 8.0 0.00 0.41 0.41 79 1010.9
20260507012443 15 12 4.8 4.8 0.00 0.41 0.41 80 1010.8
20260507011940 15 54 1.6 3.2 0.00 0.41 0.41 81 1010.6
20260507011437 15 53 3.2 4.8 0.00 0.41 0.41 81 1011.0
20260507010932 15 28 3.2 4.8 0.00 0.41 0.41 81 1010.8
20260507010427 15 58 1.6 3.2 0.00 0.41 0.41 81 1010.5
20260507005924 15 53 3.2 8.0 0.00 0.41 0.41 81 1010.5
20260507005421 15 45 3.2 8.0 0.00 0.41 0.41 81 1010.3
20260507004917 15 53 1.6 4.8 0.00 0.41 0.41 81 1010.5
20260507004414 15 60 0.0 1.6 0.00 0.41 0.41 81 1010.2
20260507003912 15 57 1.6 4.8 0.00 0.41 0.41 81 1010.2
20260507003407 15 59 4.8 8.0 0.00 0.41 0.41 81 1010.4
20260507002902 15 54 0.0 1.6 0.00 0.41 0.41 84 1010.2
20260507002358 15 54 1.6 1.6 0.00 0.41 0.41 84 1010.0
20260507001856 15 49 3.2 8.0 0.00 0.41 0.41 82 1009.8
20260507001352 15 62 0.0 3.2 0.00 0.41 0.41 84 1009.7
20260507000849 15 57 0.0 3.2 0.00 0.41 0.41 83 1009.5
20260507000344 15 59 1.6 3.2 0.00 0.41 0.41 83 1009.6
20260506235841 16 49 1.6 3.2 0.00 0.41 0.41 83 1009.2
20260506235339 16 51 1.6 8.0 0.00 0.41 0.41 83 1009.0
20260506234834 16 50 4.8 8.0 0.00 0.41 0.41 83 1009.0
20260506234332 16 46 3.2 4.8 0.00 0.41 0.41 84 1008.8
20260506233830 16 56 3.2 4.8 0.00 0.41 0.41 85 1008.8
20260506233325 16 50 4.8 4.8 0.00 0.41 0.41 85 1008.5
20260506232823 16 56 1.6 3.2 0.00 0.41 0.41 85 1008.5
20260506232318 16 55 1.6 4.8 0.00 0.41 0.41 86 1008.4
20260506231815 16 61 1.6 4.8 0.00 0.41 0.41 86 1008.5
20260506231313 17 58 1.6 8.0 0.00 0.41 0.41 86 1008.5
20260506230810 17 59 3.2 3.2 0.00 0.41 0.41 86 1008.5
20260506230307 17 62 0.0 3.2 0.00 0.41 0.41 86 1008.2
20260506225803 17 47 3.2 8.0 0.00 0.41 0.41 86 1008.4
20260506225300 17 39 3.2 12.9 0.00 0.41 0.41 86 1008.3
20260506224756 17 43 1.6 4.8 0.00 0.41 0.41 87 1008.2
20260506224254 17 58 0.0 4.8 0.00 0.41 0.41 89 1008.1
20260506223749 17 26 3.2 11.3 0.00 0.41 0.41 92 1008.1
20260506223240 18 55 0.0 1.6 0.00 0.41 0.41 93 1008.2
20260506222737 18 55 0.0 1.6 0.00 0.41 0.41 93 1007.9
20260506222232 18 56 0.0 1.6 0.00 0.41 0.41 93 1008.2
20260506221731 18 56 0.0 1.6 0.00 0.41 0.41 93 1007.7
20260506221229 18 56 0.0 1.6 0.00 0.41 0.41 92 1007.8
20260506220725 18 58 0.0 0.0 0.00 0.41 0.41 92 1007.6
20260506220220 18 58 0.0 1.6 0.00 0.41 0.41 92 1007.5
20260506215717 18 60 0.0 0.0 0.00 0.41 0.41 91 1007.6
20260506215213 18 60 0.0 0.0 0.00 0.41 0.41 91 1007.3
20260506214710 18 63 0.0 0.0 0.00 0.41 0.41 90 1007.5
20260506214207 18 63 0.0 8.0 0.00 0.41 0.41 89 1007.3
20260506213705 18 67 0.0 1.6 0.00 0.41 0.41 89 1007.1
20260506213202 19 76 0.0 1.6 0.00 0.41 0.41 89 1007.2
20260506212659 18 57 0.0 0.0 0.00 0.41 0.41 89 1007.1
20260506212154 19 69 1.6 3.2 0.00 0.41 0.41 89 1007.1
20260506211650 18 58 0.0 0.0 0.00 0.41 0.41 90 1006.9
20260506211147 18 58 0.0 0.0 0.00 0.41 0.41 91 1006.8
20260506210644 18 58 0.0 0.0 0.00 0.41 0.41 91 1006.7
20260506210140 18 58 0.0 0.0 0.00 0.41 0.41 90 1006.9
20260506205638 18 58 0.0 0.0 0.00 0.41 0.41 90 1006.8
20260506205132 18 60 0.0 0.0 0.00 0.41 0.41 91 1007.0
20260506204631 18 61 0.0 1.6 0.00 0.41 0.41 91 1006.8
20260506204127 18 64 0.0 1.6 0.00 0.41 0.41 91 1006.8
20260506203626 18 55 0.0 0.0 0.00 0.41 0.41 91 1006.9
20260506203122 18 55 0.0 0.0 0.00 0.41 0.41 91 1006.9
20260506202620 18 87 0.0 0.0 0.00 0.41 0.41 91 1006.7
20260506202116 18 59 0.0 0.0 0.00 0.41 0.41 91 1006.8
20260506201613 18 59 0.0 0.0 0.00 0.41 0.41 90 1006.8
20260506201110 18 60 0.0 0.0 0.00 0.41 0.41 90 1006.7
20260506200606 18 82 4.8 4.8 0.00 0.41 0.41 90 1006.7
20260506195559 18 55 0.0 0.0 0.00 0.41 0.41 94 1006.9
20260506195056 18 56 0.0 1.6 0.00 0.41 0.41 96 1006.8
20260506194554 18 57 0.0 0.0 0.00 0.41 0.41 97 1007.0
20260506194049 17 56 0.0 0.0 0.00 0.41 0.41 98 1007.1
20260506193548 17 56 0.0 0.0 0.00 0.41 0.41 98 1006.8
20260506193045 17 56 0.0 1.6 0.00 0.41 0.41 98 1007.2
20260506192541 17 58 0.0 0.0 0.00 0.41 0.41 99 1007.1
20260506192037 17 58 0.0 0.0 0.00 0.41 0.41 99 1007.2
20260506191534 17 58 0.0 0.0 0.00 0.41 0.41 99 1007.0
20260506191030 16 57 0.0 1.6 0.00 0.41 0.41 99 1007.1
20260506190527 17 59 1.6 1.6 0.00 0.41 0.41 99 1007.3
20260506190024 17 60 0.0 0.0 0.00 0.41 0.41 99 1007.1
20260506185521 17 60 0.0 0.0 0.00 0.41 0.41 99 1007.3
20260506185018 17 60 0.0 1.6 0.00 0.41 0.41 99 1007.3
20260506184515 16 82 0.0 1.6 0.00 0.41 0.41 99 1007.3
20260506184013 16 59 0.0 1.6 0.00 0.41 0.41 99 1007.5
20260506183508 16 68 0.0 4.8 0.00 0.41 0.41 99 1007.5
20260506183006 16 66 0.0 0.0 0.00 0.41 0.41 99 1007.3
20260506182502 16 62 0.0 1.6 0.00 0.41 0.41 99 1007.6
20260506181959 16 67 0.0 3.2 0.00 0.41 0.41 99 1007.6
20260506181457 16 63 0.0 0.0 0.00 0.41 0.41 99 1007.6
20260506180954 16 62 0.0 1.6 0.00 0.41 0.41 99 1007.7
20260506180450 16 65 0.0 0.0 0.00 0.41 0.41 99 1007.7
20260506175947 16 92 3.2 3.2 0.00 0.41 0.41 99 1007.8
20260506175444 16 73 1.6 1.6 0.00 0.41 0.41 99 1007.6
20260506174940 16 62 0.0 1.6 0.00 0.41 0.41 99 1007.8
20260506174438 16 84 1.6 11.3 0.00 0.41 0.41 99 1007.6
20260506173935 16 78 1.6 1.6 0.00 0.41 0.41 99 1007.6
20260506173432 16 61 0.0 3.2 0.00 0.41 0.41 99 1007.6
20260506172929 16 61 0.0 3.2 0.00 0.41 0.41 99 1007.8
20260506172426 16 59 0.0 1.6 0.00 0.41 0.41 99 1007.5
20260506171923 16 69 0.0 1.6 0.00 0.41 0.41 99 1007.8
20260506171420 16 76 1.6 3.2 0.00 0.41 0.41 99 1007.7
20260506170918 16 60 0.0 0.0 0.00 0.41 0.41 99 1007.7
20260506170413 16 32 3.2 3.2 0.00 0.41 0.41 99 1007.6
20260506165907 16 59 0.0 3.2 0.00 0.41 0.41 99 1007.7
20260506165405 16 89 4.8 4.8 0.00 0.41 0.41 99 1007.6
20260506164901 16 73 3.2 3.2 0.00 0.41 0.41 99 1007.5
20260506164357 16 147 1.6 3.2 0.00 0.41 0.41 99 1007.6
20260506163855 16 59 1.6 3.2 0.00 0.41 0.41 99 1007.7
20260506163349 16 62 0.0 1.6 0.00 0.41 0.41 99 1007.7
20260506162844 15 82 0.0 1.6 0.00 0.41 0.41 99 1007.8
20260506162343 15 44 1.6 3.2 0.00 0.41 0.41 99 1007.9
20260506161835 15 84 0.0 4.8 0.00 0.41 0.41 99 1007.7
20260506161332 15 39 1.6 3.2 0.00 0.41 0.41 99 1007.7
20260506160829 16 106 4.8 8.0 0.00 0.41 0.41 99 1007.7
20260506160325 15 74 0.0 1.6 0.00 0.41 0.41 99 1007.7
20260506155824 15 70 1.6 3.2 0.00 0.41 0.41 99 1007.7
20260506155320 15 62 1.6 4.8 0.00 0.41 0.41 99 1007.7
20260506153433 15 63 0.0 0.0 0.00 0.41 0.41 99 1007.6
20260506152931 15 59 0.0 3.2 0.00 0.41 0.41 99 1007.6
20260506152427 15 63 0.0 3.2 0.00 0.41 0.41 99 1007.7
20260506151926 15 61 0.0 0.0 0.00 0.41 0.41 99 1007.6
20260506151423 15 61 0.0 1.6 0.00 0.41 0.41 99 1007.7
20260506150921 15 64 0.0 3.2 0.00 0.41 0.41 99 1007.7
20260506150416 15 62 0.0 0.0 0.00 0.41 0.41 99 1007.7
20260506145914 15 78 3.2 3.2 0.00 0.41 0.41 99 1007.7
20260506145409 15 64 0.0 3.2 0.00 0.41 0.41 99 1007.9
20260506144907 15 59 0.0 1.6 0.18 0.41 0.41 99 1008.1
20260506144403 15 67 0.0 9.7 0.18 0.41 0.41 99 1008.0
20260506143902 15 63 0.0 0.0 0.30 0.38 0.38 99 1008.3
20260506143358 15 90 3.2 3.2 0.18 0.36 0.36 98 1008.5
20260506142857 15 56 0.0 1.6 0.00 0.33 0.33 98 1008.5
20260506142355 15 64 0.0 3.2 0.18 0.33 0.33 98 1008.7
20260506141852 15 9 3.2 11.3 0.48 0.33 0.33 98 1008.5
20260506141350 15 169 3.2 9.7 0.18 0.28 0.28 98 1008.3
20260506140848 15 64 0.0 0.0 0.00 0.25 0.25 98 1008.4
20260506140345 15 76 1.6 3.2 0.00 0.25 0.25 97 1008.1
20260506135842 15 85 0.0 0.0 0.00 0.25 0.25 97 1008.0
20260506135338 15 67 1.6 3.2 0.13 0.25 0.25 97 1007.8
20260506134835 15 108 4.8 8.0 0.30 0.25 0.25 97 1008.1
20260506134331 15 59 0.0 1.6 0.30 0.23 0.23 97 1008.1
20260506133829 15 69 1.6 3.2 0.43 0.20 0.20 97 1008.0
20260506133325 15 74 1.6 4.8 0.48 0.18 0.18 96 1008.2
20260506132822 15 105 4.8 4.8 0.30 0.13 0.13 96 1008.1
20260506132319 15 75 3.2 3.2 0.30 0.10 0.10 96 1008.1
20260506131817 16 107 3.2 3.2 0.30 0.08 0.08 96 1008.1
20260506131313 16 66 0.0 3.2 0.13 0.05 0.05 95 1008.3
20260506130810 16 69 0.0 0.0 0.00 0.03 0.03 95 1008.3
20260506130306 16 70 1.6 4.8 0.00 0.03 0.03 94 1008.2
20260506125805 16 106 1.6 3.2 0.00 0.03 0.03 94 1008.1
20260506125305 16 59 1.6 4.8 0.00 0.03 0.03 94 1008.1
20260506124801 16 61 0.0 1.6 0.00 0.03 0.03 94 1008.0
20260506124258 16 63 0.0 1.6 0.00 0.03 0.03 94 1008.2
20260506123755 16 61 0.0 1.6 0.00 0.03 0.03 94 1008.3
20260506123254 16 29 0.0 1.6 0.00 0.03 0.03 93 1008.2
20260506122750 15 59 0.0 4.8 0.00 0.03 0.03 93 1008.3
20260506122247 15 141 3.2 8.0 0.00 0.03 0.03 93 1008.5
20260506121745 16 66 0.0 1.6 0.18 0.03 0.03 93 1008.6
20260506121242 16 59 0.0 1.6 0.18 0.03 0.03 92 1008.5
20260506120739 16 93 1.6 3.2 0.00 0.00 0.00 92 1008.5
20260506120237 16 62 0.0 1.6 0.00 0.00 0.00 91 1008.7
20260506115734 16 79 3.2 3.2 0.00 0.00 0.00 90 1008.7
20260506115233 16 124 8.0 11.3 0.00 0.00 0.00 89 1008.5
20260506114730 16 68 0.0 3.2 0.00 0.00 0.00 87 1008.5
20260506114227 16 63 0.0 0.0 0.00 0.00 0.00 86 1008.4
20260506113726 17 58 0.0 0.0 0.00 0.00 0.00 84 1008.3
20260506113223 17 58 0.0 0.0 0.00 0.00 0.00 83 1008.3
20260506112719 17 58 0.0 1.6 0.00 0.00 0.00 82 1008.2
20260506112217 17 53 1.6 3.2 0.00 0.00 0.00 80 1008.1
20260506111714 17 66 0.0 0.0 0.00 0.00 0.00 80 1008.2
20260506111213 17 68 0.0 1.6 0.00 0.00 0.00 79 1008.0
20260506110709 18 69 0.0 0.0 0.00 0.00 0.00 77 1008.1
20260506110207 18 68 0.0 0.0 0.00 0.00 0.00 75 1007.7
20260506105703 18 71 0.0 0.0 0.00 0.00 0.00 73 1007.9
20260506105200 18 62 0.0 0.0 0.00 0.00 0.00 71 1007.9
20260506104658 18 70 0.0 3.2 0.00 0.00 0.00 69 1007.8
20260506104155 18 47 0.0 4.8 0.00 0.00 0.00 67 1007.5
20260506103652 19 57 1.6 3.2 0.00 0.00 0.00 67 1007.6
20260506103149 19 73 0.0 3.2 0.00 0.00 0.00 65 1007.1
20260506102647 19 79 1.6 3.2 0.00 0.00 0.00 65 1007.5
20260506102144 19 72 0.0 3.2 0.00 0.00 0.00 65 1007.2
20260506101641 19 113 3.2 3.2 0.00 0.00 0.00 65 1007.1
20260506101138 19 58 0.0 3.2 0.00 0.00 0.00 65 1007.3
20260506100637 19 56 0.0 0.0 0.00 0.00 0.00 66 1007.1
20260506100134 19 72 0.0 1.6 0.00 0.00 0.00 65 1007.2
20260506095633 19 77 4.8 8.0 0.00 0.00 0.00 64 1007.2
20260506095129 19 55 1.6 3.2 0.00 0.00 0.00 64 1006.9
20260506094626 19 67 0.0 1.6 0.00 0.00 0.00 63 1006.7
20260506094124 19 57 0.0 3.2 0.00 0.00 0.00 64 1006.9
20260506093622 19 58 1.6 1.6 0.00 0.00 0.00 64 1006.9
20260506093119 19 71 0.0 3.2 0.00 0.00 0.00 64 1007.1
20260506092617 20 57 0.0 1.6 0.00 0.00 0.00 62 1007.0
20260506092114 20 66 0.0 4.8 0.00 0.00 0.00 62 1007.1
20260506091612 20 118 3.2 4.8 0.00 0.00 0.00 62 1007.2
20260506091109 20 59 0.0 8.0 0.00 0.00 0.00 62 1007.0
20260506090607 20 57 1.6 1.6 0.00 0.00 0.00 62 1007.2
20260506085600 20 58 0.0 1.6 0.00 0.00 0.00 61 1007.3
20260506085056 20 67 1.6 4.8 0.00 0.00 0.00 60 1007.5
20260506084553 20 81 1.6 3.2 0.00 0.00 0.00 60 1007.5
20260506084050 19 75 1.6 4.8 0.00 0.00 0.00 61 1007.3
20260506083547 19 61 0.0 3.2 0.00 0.00 0.00 62 1007.3
20260506083044 20 60 0.0 0.0 0.00 0.00 0.00 62 1007.5
20260506082540 20 72 0.0 3.2 0.00 0.00 0.00 60 1007.3
20260506082036 20 43 3.2 3.2 0.00 0.00 0.00 61 1007.3
20260506081535 20 67 0.0 1.6 0.00 0.00 0.00 60 1007.3
20260506081032 20 202 4.8 8.0 0.00 0.00 0.00 59 1007.2
20260506080529 20 69 0.0 1.6 0.00 0.00 0.00 60 1007.3
20260506073513 20 53 0.0 1.6 0.00 0.00 0.00 57 1007.3
20260506073010 20 49 1.6 3.2 0.00 0.00 0.00 58 1007.6
20260506072507 20 52 0.0 8.0 0.00 0.00 0.00 56 1007.5
20260506072005 20 73 1.6 1.6 0.00 0.00 0.00 56 1007.6